SWA636 KCRP-KHOU

Flight info

Callsign SWA636
Flight time 0h 38m
Altitude 25000
Route PSX BELLR
Aircraft B738/M-SDE3/STD

Departure

Time 2026-04-27 13:24
Airport Corpus Christi International Airport (KCRP)

Arrival

Time 2026-04-27 14:02
Airport William P. Hobby Airport (KHOU)
Time Latitude Longitude Altitude Speed Heading
2026-04-27 13:11 27.77373 -97.50283 44 ft 0 kts 77°
2026-04-27 13:17 27.77373 -97.50285 44 ft 0 kts 77°
2026-04-27 13:18 27.77370 -97.50297 44 ft 2 kts 76°
2026-04-27 13:18 27.77365 -97.50320 44 ft 3 kts 74°
2026-04-27 13:18 27.77353 -97.50350 44 ft 4 kts 29°
2026-04-27 13:18 27.77323 -97.50340 44 ft 5 kts 317°
2026-04-27 13:19 27.77317 -97.50334 44 ft 0 kts 317°
2026-04-27 13:19 27.77323 -97.50356 44 ft 7 kts 279°
2026-04-27 13:19 27.77357 -97.50436 44 ft 15 kts 311°
2026-04-27 13:20 27.77450 -97.50541 44 ft 21 kts 315°
2026-04-27 13:20 27.77551 -97.50652 44 ft 18 kts 316°
2026-04-27 13:20 27.77632 -97.50739 46 ft 13 kts 316°
2026-04-27 13:20 27.77707 -97.50822 47 ft 16 kts 316°
2026-04-27 13:21 27.77785 -97.50906 48 ft 13 kts 315°
2026-04-27 13:21 27.77838 -97.50970 48 ft 8 kts 298°
2026-04-27 13:21 27.77836 -97.51021 48 ft 4 kts 241°
2026-04-27 13:21 27.77816 -97.51050 48 ft 7 kts 227°
2026-04-27 13:22 27.77767 -97.51105 48 ft 11 kts 226°
2026-04-27 13:22 27.77727 -97.51187 48 ft 11 kts 266°
2026-04-27 13:22 27.77726 -97.51205 48 ft 0 kts 268°
2026-04-27 13:23 27.77726 -97.51206 48 ft 0 kts 268°
2026-04-27 13:23 27.77721 -97.51266 48 ft 12 kts 250°
2026-04-27 13:24 27.77649 -97.51276 48 ft 14 kts 147°
2026-04-27 13:24 27.77380 -97.50992 48 ft 103 kts 136°
2026-04-27 13:24 27.76652 -97.50191 286 ft 175 kts 136°
2026-04-27 13:24 27.75767 -97.49148 1152 ft 202 kts 135°
2026-04-27 13:25 27.74703 -97.47917 1919 ft 241 kts 136°
2026-04-27 13:25 27.73586 -97.46375 2650 ft 261 kts 120°
2026-04-27 13:25 27.73015 -97.44435 3242 ft 266 kts 99°
2026-04-27 13:25 27.73102 -97.42369 3834 ft 269 kts 78°
2026-04-27 13:26 27.73850 -97.40447 4429 ft 273 kts 56°
2026-04-27 13:26 27.75187 -97.38921 5032 ft 275 kts 34°
2026-04-27 13:26 27.76919 -97.38035 5633 ft 277 kts 13°
2026-04-27 13:26 27.78806 -97.37896 6229 ft 277 kts 353°
2026-04-27 13:27 27.80718 -97.38205 6881 ft 279 kts 351°
2026-04-27 13:27 27.82636 -97.38527 7512 ft 281 kts 351°
2026-04-27 13:27 27.84560 -97.38852 8142 ft 283 kts 351°
2026-04-27 13:27 27.86510 -97.39180 8772 ft 285 kts 351°
2026-04-27 13:28 27.88463 -97.39508 9391 ft 287 kts 351°
2026-04-27 13:28 27.90443 -97.39841 10009 ft 290 kts 351°
2026-04-27 13:28 27.92424 -97.40175 10618 ft 292 kts 351°
2026-04-27 13:28 27.94432 -97.40513 11227 ft 294 kts 351°
2026-04-27 13:29 27.96432 -97.40819 11819 ft 297 kts 356°
2026-04-27 13:29 27.98491 -97.40514 12414 ft 299 kts 17°
2026-04-27 13:29 28.00324 -97.39445 13010 ft 301 kts 36°
2026-04-27 13:29 28.01741 -97.37753 13601 ft 303 kts 55°
2026-04-27 13:30 28.02607 -97.35580 14201 ft 306 kts 75°
2026-04-27 13:30 28.03013 -97.33221 14813 ft 307 kts 74°
2026-04-27 13:30 28.03892 -97.31034 15394 ft 305 kts 53°
2026-04-27 13:30 28.05283 -97.29260 16008 ft 303 kts 44°
2026-04-27 13:31 28.06661 -97.27476 16600 ft 304 kts 47°
2026-04-27 13:31 28.08005 -97.25645 17194 ft 309 kts 47°
2026-04-27 13:31 28.09398 -97.23737 17822 ft 325 kts 47°
2026-04-27 13:31 28.10877 -97.21704 18470 ft 340 kts 47°
2026-04-27 13:32 28.12396 -97.19616 19133 ft 353 kts 47°
2026-04-27 13:32 28.13966 -97.17455 19805 ft 360 kts 47°
2026-04-27 13:32 28.15552 -97.15270 20428 ft 360 kts 47°
2026-04-27 13:32 28.17148 -97.13074 21011 ft 360 kts 46°
2026-04-27 13:33 28.18747 -97.10871 21519 ft 374 kts 46°
2026-04-27 13:33 28.20438 -97.08542 22096 ft 386 kts 46°
2026-04-27 13:33 28.22156 -97.06172 22681 ft 397 kts 46°
2026-04-27 13:33 28.23326 -97.04558 23062 ft 400 kts 46°
2026-04-27 13:34 28.25683 -97.01300 23753 ft 401 kts 46°
2026-04-27 13:34 28.27430 -96.98885 24211 ft 401 kts 45°
2026-04-27 13:34 28.29222 -96.96414 24605 ft 415 kts 45°
2026-04-27 13:34 28.31125 -96.93825 24907 ft 427 kts 44°
2026-04-27 13:35 28.33012 -96.91239 24875 ft 428 kts 44°
2026-04-27 13:35 28.34872 -96.88647 24887 ft 425 kts 45°
2026-04-27 13:35 28.36714 -96.86083 24886 ft 423 kts 45°
2026-04-27 13:35 28.38598 -96.83460 24893 ft 423 kts 45°
2026-04-27 13:36 28.40485 -96.80833 24897 ft 423 kts 45°
2026-04-27 13:36 28.42336 -96.78256 24898 ft 424 kts 45°
2026-04-27 13:36 28.44180 -96.75691 24900 ft 423 kts 45°
2026-04-27 13:36 28.46042 -96.73109 24901 ft 423 kts 45°
2026-04-27 13:37 28.47924 -96.70489 24902 ft 424 kts 45°
2026-04-27 13:37 28.49778 -96.67907 24902 ft 424 kts 45°
2026-04-27 13:37 28.51634 -96.65321 24902 ft 424 kts 45°
2026-04-27 13:37 28.53480 -96.62746 24903 ft 424 kts 45°
2026-04-27 13:38 28.55355 -96.60129 24903 ft 424 kts 45°
2026-04-27 13:38 28.57213 -96.57540 24904 ft 423 kts 45°
2026-04-27 13:38 28.59093 -96.54917 24903 ft 423 kts 45°
2026-04-27 13:38 28.60955 -96.52320 24904 ft 424 kts 45°
2026-04-27 13:39 28.62814 -96.49720 24904 ft 424 kts 45°
2026-04-27 13:39 28.64674 -96.47117 24904 ft 424 kts 45°
2026-04-27 13:39 28.66536 -96.44512 24904 ft 424 kts 45°
2026-04-27 13:39 28.68390 -96.41920 24904 ft 424 kts 45°
2026-04-27 13:40 28.70270 -96.39283 24905 ft 424 kts 45°
2026-04-27 13:40 28.72137 -96.36664 24905 ft 424 kts 45°
2026-04-27 13:40 28.73987 -96.34074 24900 ft 424 kts 45°
2026-04-27 13:40 28.75965 -96.31676 24855 ft 405 kts 34°
2026-04-27 13:41 28.78243 -96.29923 24440 ft 387 kts 20°
2026-04-27 13:41 28.80690 -96.28893 24007 ft 373 kts 10°
2026-04-27 13:41 28.83124 -96.28006 23548 ft 369 kts 11°
2026-04-27 13:41 28.85565 -96.27085 23082 ft 365 kts 12°
2026-04-27 13:42 28.87935 -96.26180 22625 ft 361 kts 12°
2026-04-27 13:42 28.90287 -96.25275 22154 ft 357 kts 13°
2026-04-27 13:42 28.92627 -96.24373 21660 ft 355 kts 12°
2026-04-27 13:42 28.94949 -96.23480 21166 ft 352 kts 13°
2026-04-27 13:43 28.97240 -96.22594 20683 ft 350 kts 13°
2026-04-27 13:43 28.99534 -96.21703 20218 ft 347 kts 13°
2026-04-27 13:43 29.01808 -96.20819 19762 ft 343 kts 13°
2026-04-27 13:43 29.04065 -96.19964 19291 ft 338 kts 11°
2026-04-27 13:44 29.06274 -96.19101 18833 ft 336 kts 14°
2026-04-27 13:44 29.08463 -96.18237 18379 ft 332 kts 13°
2026-04-27 13:44 29.10617 -96.17396 17929 ft 329 kts 13°
2026-04-27 13:44 29.12776 -96.16557 17479 ft 326 kts 14°
2026-04-27 13:45 29.14912 -96.15724 17026 ft 323 kts 14°
2026-04-27 13:45 29.17019 -96.14906 16576 ft 321 kts 14°
2026-04-27 13:45 29.19151 -96.14075 16117 ft 319 kts 14°
2026-04-27 13:45 29.21252 -96.13256 15662 ft 317 kts 15°
2026-04-27 13:46 29.23329 -96.12447 15203 ft 315 kts 15°
2026-04-27 13:46 29.25392 -96.11643 14745 ft 314 kts 15°
2026-04-27 13:46 29.27461 -96.10834 14290 ft 312 kts 16°
2026-04-27 13:46 29.29493 -96.10043 13842 ft 311 kts 16°
2026-04-27 13:47 29.31506 -96.09133 13362 ft 312 kts 27°
2026-04-27 13:47 29.33217 -96.07621 12859 ft 315 kts 42°
2026-04-27 13:47 29.34753 -96.05850 12418 ft 313 kts 44°
2026-04-27 13:47 29.36239 -96.04028 11966 ft 312 kts 45°
2026-04-27 13:48 29.37681 -96.02225 11463 ft 300 kts 46°
2026-04-27 13:48 29.39049 -96.00495 10915 ft 285 kts 46°
2026-04-27 13:48 29.40339 -95.98849 10378 ft 274 kts 46°
2026-04-27 13:48 29.41582 -95.97260 9853 ft 264 kts 46°
2026-04-27 13:49 29.42772 -95.95738 9347 ft 256 kts 46°
2026-04-27 13:49 29.43955 -95.94226 8838 ft 250 kts 46°
2026-04-27 13:49 29.45096 -95.92764 8342 ft 245 kts 46°
2026-04-27 13:49 29.46211 -95.91337 7858 ft 240 kts 47°
2026-04-27 13:50 29.47318 -95.89919 7372 ft 236 kts 47°
2026-04-27 13:50 29.48409 -95.88521 6978 ft 236 kts 47°
2026-04-27 13:50 29.49508 -95.87114 6637 ft 240 kts 47°
2026-04-27 13:50 29.50616 -95.85693 6298 ft 243 kts 47°
2026-04-27 13:51 29.51756 -95.84229 5953 ft 246 kts 47°
2026-04-27 13:51 29.52898 -95.82758 5612 ft 249 kts 47°
2026-04-27 13:51 29.54052 -95.81267 5280 ft 251 kts 47°
2026-04-27 13:51 29.55210 -95.79774 4963 ft 252 kts 48°
2026-04-27 13:52 29.56372 -95.78274 4690 ft 251 kts 48°
2026-04-27 13:52 29.57531 -95.76781 4414 ft 250 kts 47°
2026-04-27 13:52 29.58680 -95.75305 4134 ft 250 kts 47°
2026-04-27 13:52 29.59839 -95.73814 3850 ft 249 kts 47°
2026-04-27 13:53 29.62129 -95.70863 3292 ft 248 kts 47°
2026-04-27 13:53 29.63281 -95.69379 3012 ft 247 kts 47°
2026-04-27 13:53 29.64442 -95.67881 2726 ft 247 kts 47°
2026-04-27 13:54 29.65568 -95.66430 2512 ft 244 kts 47°
2026-04-27 13:54 29.66688 -95.64986 2306 ft 240 kts 47°
2026-04-27 13:54 29.67798 -95.63553 2100 ft 237 kts 47°
2026-04-27 13:54 29.68885 -95.62153 1946 ft 232 kts 47°
2026-04-27 13:55 29.69928 -95.60807 1990 ft 218 kts 47°
2026-04-27 13:55 29.70784 -95.59435 1956 ft 207 kts 67°
2026-04-27 13:55 29.71367 -95.57973 1995 ft 198 kts 62°
2026-04-27 13:55 29.72006 -95.56557 2015 ft 200 kts 62°
2026-04-27 13:56 29.72651 -95.55134 2012 ft 202 kts 62°
2026-04-27 13:56 29.73298 -95.53711 2008 ft 202 kts 62°
2026-04-27 13:56 29.73952 -95.52280 2005 ft 202 kts 62°
2026-04-27 13:56 29.74605 -95.50859 2003 ft 201 kts 62°
2026-04-27 13:57 29.75281 -95.49425 2000 ft 200 kts 60°
2026-04-27 13:57 29.75952 -95.48003 2002 ft 201 kts 62°
2026-04-27 13:57 29.76379 -95.46485 2000 ft 199 kts 81°
2026-04-27 13:57 29.76599 -95.44917 1999 ft 200 kts 82°
2026-04-27 13:58 29.76815 -95.43337 1999 ft 199 kts 83°
2026-04-27 13:58 29.76697 -95.41807 1972 ft 186 kts 112°
2026-04-27 13:58 29.75993 -95.40652 1949 ft 169 kts 145°
2026-04-27 13:58 29.75043 -95.39974 1981 ft 156 kts 149°
2026-04-27 13:59 29.74120 -95.39290 2004 ft 158 kts 147°
2026-04-27 13:59 29.73332 -95.38391 2013 ft 161 kts 133°
2026-04-27 13:59 29.72571 -95.37447 1998 ft 158 kts 134°
2026-04-27 13:59 29.71845 -95.36570 1973 ft 147 kts 135°
2026-04-27 14:00 29.71127 -95.35712 1778 ft 149 kts 135°
2026-04-27 14:00 29.70398 -95.34846 1585 ft 148 kts 136°
2026-04-27 14:00 29.69684 -95.34000 1396 ft 147 kts 136°
2026-04-27 14:00 29.68984 -95.33171 1208 ft 146 kts 135°
2026-04-27 14:01 29.68269 -95.32320 1017 ft 146 kts 135°
2026-04-27 14:01 29.67567 -95.31486 826 ft 145 kts 135°
2026-04-27 14:01 29.66862 -95.30649 633 ft 145 kts 135°
2026-04-27 14:01 29.66160 -95.29815 439 ft 144 kts 135°
2026-04-27 14:02 29.65465 -95.28990 250 ft 144 kts 135°
2026-04-27 14:02 29.64773 -95.28162 67 ft 141 kts 136°
2026-04-27 14:02 29.64193 -95.27486 52 ft 68 kts 133°
2026-04-27 14:02 29.64021 -95.27274 51 ft 28 kts 133°
2026-04-27 14:03 29.63936 -95.27119 51 ft 18 kts 106°
2026-04-27 14:03 29.63924 -95.26990 51 ft 14 kts 88°
2026-04-27 14:03 29.63957 -95.26965 51 ft 5 kts 323°
2026-04-27 14:03 29.63984 -95.26996 51 ft 11 kts 312°
2026-04-27 14:04 29.64086 -95.27119 51 ft 26 kts 313°
2026-04-27 14:04 29.64198 -95.27259 51 ft 21 kts 314°
2026-04-27 14:04 29.64295 -95.27372 51 ft 17 kts 316°
2026-04-27 14:04 29.64374 -95.27463 51 ft 15 kts 313°
2026-04-27 14:05 29.64447 -95.27553 51 ft 15 kts 314°
2026-04-27 14:05 29.64533 -95.27608 51 ft 13 kts 18°
2026-04-27 14:05 29.64601 -95.27539 51 ft 12 kts 41°
2026-04-27 14:05 29.64670 -95.27514 51 ft 10 kts 358°
2026-04-27 14:06 29.64769 -95.27518 51 ft 19 kts 359°
2026-04-27 14:06 29.64905 -95.27522 51 ft 18 kts
2026-04-27 14:06 29.65022 -95.27524 51 ft 15 kts 356°
2026-04-27 14:06 29.65120 -95.27531 51 ft 12 kts 336°
2026-04-27 14:07 29.65147 -95.27610 51 ft 9 kts 277°
2026-04-27 14:07 29.65193 -95.27635 51 ft 7 kts
2026-04-27 14:07 29.65233 -95.27621 51 ft 4 kts 21°
2026-04-27 14:07 29.65242 -95.27618 51 ft 0 kts 21°